Location: ??????
(55.6500°N, 37.8000°E)
Time: 13:27:42
(UTC+00:00)

Cosmos 1371 Rocket - Visible Passes

Search period start: 12 July 2024 00:00
Search period end: 22 July 2024 00:00
Orbit: 751 x 787 km, 74.0° (Epoch: 11 July)

Date Brightness Start Highest point End Pass type
(mag) Time Alt. Az. Time Alt. Az. Time Alt. Az.
12 Jul 4.5 22:30:33 15° S 22:34:46 51° ESE 22:39:57 10° NE visible
13 Jul 5.1 21:54:31 15° SSE 21:58:17 34° ESE 22:03:05 10° NE visible
13 Jul 4.6 23:34:57 10° SW 23:40:13 54° NW 23:45:29 10° NNE visible
14 Jul 5.6 21:18:27 13° SE 21:21:53 23° E 21:26:01 10° NE visible
14 Jul 4.2 22:58:44 14° SSW 23:03:27 77° WNW 23:08:50 10° NNE visible
15 Jul 6.0 20:42:30 10° SE 20:45:33 16° E 20:48:37 10° ENE visible
15 Jul 4.1 22:22:39 17° SSW 22:26:47 75° ESE 22:32:08 10° NNE visible
16 Jul 5.5 00:04:46 10° WSW 00:09:25 29° NW 00:14:05 10° NNE visible
16 Jul 4.5 21:46:32 19° S 21:50:11 51° ESE 21:55:22 10° NE visible
16 Jul 5.1 23:27:28 10° WSW 23:32:29 39° NW 23:37:30 10° NNE visible
17 Jul 5.0 21:10:24 18° SSE 21:13:42 34° ESE 21:18:29 10° NE visible
17 Jul 4.6 22:50:41 12° SW 22:55:38 54° NW 23:00:53 10° NNE visible
18 Jul 5.5 20:34:14 15° SE 20:37:17 23° E 20:41:26 10° NE visible
18 Jul 4.2 22:14:31 16° SW 22:18:52 76° WNW 22:24:14 10° NNE visible
18 Jul 6.0 23:57:41 10° W 00:01:52 23° NW 00:06:03 10° NNE visible
19 Jul 5.9 19:58:03 10° SE 20:00:58 16° E 20:04:02 10° ENE visible
19 Jul 4.1 21:38:19 19° SSW 21:42:11 75° ESE 21:47:32 10° NNE visible
19 Jul 5.6 23:20:11 10° WSW 23:24:50 29° NW 23:29:29 10° NNE visible
20 Jul 4.4 21:02:05 20° S 21:05:36 51° ESE 21:10:46 10° NE visible
20 Jul 5.2 22:42:53 10° WSW 22:47:53 39° NW 22:52:53 10° NNE visible
21 Jul 4.9 20:25:50 18° SSE 20:29:06 34° ESE 20:33:53 10° NE visible
21 Jul 4.7 22:06:05 12° SW 22:11:02 54° NW 22:16:17 10° NNE visible
21 Jul 6.3 23:50:45 10° WNW 23:54:22 18° NNW 23:57:59 10° NNE visible
